Find Starlink 38313

NORAD ID: 100555 Int'l Des: 2026-200 Owner: SPXS Country: US Constellation: starlink operational

現在のビュー

3D地球を読み込み中...

About Starlink 38313

Starlink 38313 (NORAD 100555) is a starlink constellation satellite launched Sep 2, 2026 by SPXS of US. with a mass of 575.00 kg.

次回通過

Passes for default location (London). Set your location on the main map for personalized predictions.

高度履歴

Loading altitude history...

軌道要素

1 A0555U 26200X 26264.62050604 .00253118 00000-0 14678-2 0 9996
2 A0555 69.9995 132.0570 0003748 253.3565 106.7224 15.77669676 3064
Epoch: Sep 21, 2026 • Age: 7 hours

現在のステータス

高度 350.1 km
遠地点 / 近地点 N/A
速度 7.70 km/s
衛星直下点 68.21°N, 75.32°W
打ち上げ日 Sep 2, 2026
運用期間 19 days
タイプ internet

技術仕様

分類 Payload
質量 575.00 kg
乾燥質量 530.00 kg
長さ 0.30 m
スパン 29.00 m
形状 ? Box + pan
製造者 SPXS
バスタイプ Starlink V2MO
フェーズステータス In Orbit
所有者/国 SPXS/US

Most Searched